Starlink 6130

operational
NORAD ID: 57104 Int'l Des: 2023-090 Owner: SPXS Country: US Constellation: starlink
LEOCIRCULAR

About Starlink 6130

Description loading...

Live Position

Loading 3D Globe...

Upcoming Passes

Altitude History

Altitude vs Time

uPlot chart will show altitude changes over time

Two-Line Element Set

1 57104U 23090D 25302.88920817 .00000791 00000-0 73610-4 0 9994
2 57104 43.0077 265.7276 0001119 265.1775 94.8939 15.02533375130730
Epoch: Oct 29, 2025 • Age: 24 hours

Current Status

Altitude 566.2 km
Velocity 7.58 km/s
Sub-Earth Point -28.97°S, 131.36°W
Launch Date Jun 23, 2023
Age 2.3 years
Type internet

Technical Details

Classification Payload
Mass 305.00 kg
Dry Mass 290.00 kg
Total Mass 305.00 kg
Length 0.20 m
Diameter 2.80 m
Span 9.00 m
Shape Box + pan
Manufacturer SPXS
Bus Type Starlink
Phase Status In Orbit
Owner/State SPXS/US

Large Constellations

Loading constellations...